Grand Forks, ND

10:17 AM CDT on July 25, 2017 (GMT -0500)
Grand Forks International

Weather History for KGFK - June, 2012

Change the Weather History Date:

Tuesday, June 26, 2012

  Actual Average Record
Temperature  
Mean Temperature 73 °F 67 °F  
Max Temperature 85 °F 79 °F 97 °F (1961)
Min Temperature 60 °F 55 °F 41 °F (2004)
Degree Days  
Heating Degree Days 0 2  
Month to date heating degree days 42 97  
Since 1 June heating degree days 42 97  
Since 1 July heating degree days 7518 9509  
Cooling Degree Days 8 4  
Month to date cooling degree days 69 59  
Year to date cooling degree days 91 76  
Since 1 June cooling degree days 69 59  
Growing Degree Days 22 (Base 50)    
Moisture  
Dew Point 59 °F    
Average Humidity 65    
Maximum Humidity 78    
Minimum Humidity 51    
Precipitation  
Precipitation 0.00 in 0.13 in 1.71 in (2009)
Month to date precipitation 2.36 3.00  
Year to date precipitation 8.20 8.72  
Snow  
Snow 0.00 in 0.00 in - ()
Month to date snowfall 0.0 0.0  
Since 1 June snowfall 0.0 0.0  
Since 1 July snowfall 22.8 47.4  
Snow Depth 0.00 in    
Sea Level Pressure  
Sea Level Pressure 29.69 in    
Wind  
Wind Speed 15 mph (SSE)    
Max Wind Speed 24 mph    
Max Gust Speed 30 mph    
Visibility 10 miles    
Events      
T = Trace of Precipitation, MM = Missing Value Source: NWS Daily Summary

Daily Weather History Graph

Daily Weather History Graph

Search for Another Location

Airport or City:

Trip Planner

Search our weather history database for the weather conditions in past years. The results will help you decide how hot, cold, wet, or windy it might be!

Date:

Astronomy

Jun. 26, 2012 Rise Set
Actual Time 5:31 AM CDT 9:32 PM CDT
Civil Twilight 4:50 AM CDT 10:13 PM CDT
Nautical Twilight 3:52 AM CDT 11:10 PM CDT
Astronomical Twilight 2:16 AM CDT 12:45 AM CDT
Moon 1:24 PM CDT (6/26) 12:28 AM CDT (6/26)
Length of Visible Light 17h 23m
Length of Day
16h 00m
Waxing Crescent, 45% of the Moon is Illuminated
Jun 26
Waxing Crescent
Jun 26
First Quarter
Jul 3
Full
Jul 10
Last Quarter
Jul 18
New

Hourly Weather History & Observations

Time (CDT) Temp. Heat Index Dew Point Humidity Pressure Visibility Wind Dir Wind Speed Gust Speed Precip Events Conditions
12:53 AM 64.9 °F - 54.0 °F 68% 29.90 in 10.0 mi SE 8.1 mph - N/A   Scattered Clouds
1:53 AM 63.0 °F - 54.0 °F 72% 29.88 in 10.0 mi SSE 9.2 mph - N/A   Partly Cloudy
2:53 AM 63.0 °F - 54.0 °F 72% 29.85 in 10.0 mi SE 11.5 mph - N/A   Partly Cloudy
3:53 AM 62.1 °F - 53.1 °F 72% 29.82 in 10.0 mi SSE 11.5 mph - N/A   Partly Cloudy
4:53 AM 61.0 °F - 53.1 °F 75% 29.79 in 10.0 mi SE 10.4 mph - N/A   Scattered Clouds
5:53 AM 61.0 °F - 53.1 °F 75% 29.79 in 10.0 mi SSE 10.4 mph - N/A   Mostly Cloudy
6:53 AM 63.0 °F - 53.1 °F 70% 29.80 in 10.0 mi SSE 11.5 mph - N/A   Scattered Clouds
7:53 AM 66.9 °F - 55.0 °F 66% 29.78 in 10.0 mi SSE 11.5 mph - N/A   Scattered Clouds
8:53 AM 70.0 °F - 55.9 °F 61% 29.76 in 10.0 mi SSE 12.7 mph - N/A   Scattered Clouds
9:53 AM 75.0 °F - 57.9 °F 55% 29.75 in 10.0 mi SSE 18.4 mph 23.0 mph N/A   Clear
10:53 AM 78.1 °F - 61.0 °F 56% 29.73 in 10.0 mi South 16.1 mph 21.9 mph N/A   Partly Cloudy
11:53 AM 80.1 °F 81.1 °F 61.0 °F 52% 29.71 in 10.0 mi SSE 19.6 mph - N/A   Partly Cloudy
12:53 PM 82.0 °F 83.0 °F 62.1 °F 51% 29.68 in 10.0 mi SSE 16.1 mph 26.5 mph N/A   Clear
1:53 PM 82.9 °F 84.0 °F 63.0 °F 51% 29.66 in 10.0 mi SSE 19.6 mph 26.5 mph N/A   Clear
2:53 PM 84.9 °F 86.1 °F 64.0 °F 49% 29.64 in 10.0 mi South 15.0 mph 23.0 mph N/A   Clear
3:53 PM 84.9 °F 86.1 °F 64.0 °F 49% 29.62 in 10.0 mi SSE 20.7 mph 26.5 mph N/A   Clear
4:53 PM 84.9 °F 86.6 °F 64.9 °F 51% 29.59 in 10.0 mi South 21.9 mph 27.6 mph N/A   Clear
5:53 PM 84.9 °F 86.6 °F 64.9 °F 51% 29.58 in 10.0 mi SSE 20.7 mph 26.5 mph N/A   Clear
6:53 PM 82.9 °F 84.6 °F 64.9 °F 54% 29.58 in 10.0 mi South 18.4 mph 25.3 mph N/A   Clear
7:53 PM 82.0 °F 83.4 °F 64.0 °F 54% 29.55 in 10.0 mi South 15.0 mph 24.2 mph N/A   Clear
8:53 PM 79.0 °F - 62.1 °F 56% 29.54 in 10.0 mi SSE 16.1 mph 23.0 mph N/A   Scattered Clouds
9:53 PM 75.9 °F - 61.0 °F 60% 29.55 in 10.0 mi SSE 16.1 mph 24.2 mph N/A   Scattered Clouds
10:53 PM 73.0 °F - 60.1 °F 64% 29.55 in 10.0 mi SSE 13.8 mph - N/A   Partly Cloudy
11:53 PM 71.1 °F - 57.9 °F 63% 29.53 in 10.0 mi SE 10.4 mph - N/A   Scattered Clouds